Freeport, IL

12:26 PM CST on December 14, 2017 (GMT -0600)
Albertus

Weather History for KFEP - April, 2014

Change the Weather History Date:

Wednesday, April 2, 2014

  Actual Average Record
Temperature  
Mean Temperature 41 °F -  
Max Temperature 54 °F 51 °F 77 °F (2003)
Min Temperature 28 °F 30 °F 22 °F (1992)
Degree Days  
Heating Degree Days 24    
Moisture  
Dew Point 29 °F    
Average Humidity 64    
Maximum Humidity 92    
Minimum Humidity 31    
Precipitation  
Precipitation 0.00 in - - ()
Sea Level Pressure  
Sea Level Pressure 30.11 in    
Wind  
Wind Speed 9 mph (ENE)    
Max Wind Speed 17 mph    
Max Gust Speed 22 mph    
Visibility 10 miles    
Events Rain , Thunderstorm    
Averages and records for this station are not official NWS values.
T = Trace of Precipitation, MM = Missing Value Source: NWS Daily Summary

Daily Weather History Graph

Daily Weather History Graph

Search for Another Location

Airport or City:

Trip Planner

Search our weather history database for the weather conditions in past years. The results will help you decide how hot, cold, wet, or windy it might be!

Date:

Astronomy

Apr. 02, 2014 Rise Set
Actual Time 6:39 AM CDT 7:25 PM CDT
Civil Twilight 6:10 AM CDT 7:53 PM CDT
Nautical Twilight 5:37 AM CDT 8:27 PM CDT
Astronomical Twilight 5:02 AM CDT 9:02 PM CDT
Moon 8:20 AM CDT (4/2) 10:51 PM CDT (4/2)
Length of Visible Light 13h 42m
Length of Day
12h 46m
Waxing Crescent, 10% of the Moon is Illuminated
Apr 2
Waxing Crescent
Apr 7
First Quarter
Apr 15
Full
Apr 22
Last Quarter
Apr 29
New

Hourly Weather History & Observations

Time (CDT) Temp. Windchill Dew Point Humidity Pressure Visibility Wind Dir Wind Speed Gust Speed Precip Events Conditions
12:15 AM 38.8 °F 32.1 °F 32.0 °F 76% 30.11 in 10.0 mi NW 10.4 mph - N/A   Overcast
12:35 AM 38.7 °F 32.9 °F 31.6 °F 76% 30.11 in 10.0 mi NW 8.1 mph 16.1 mph N/A   Overcast
12:55 AM 38.7 °F 31.4 °F 31.5 °F 75% 30.11 in 10.0 mi NNW 11.5 mph - N/A   Overcast
1:15 AM 38.7 °F 31.8 °F 32.0 °F 77% 30.11 in 10.0 mi NNW 10.4 mph 17.3 mph N/A   Overcast
1:35 AM 38.7 °F 31.4 °F 32.4 °F 78% 30.11 in 10.0 mi NNW 11.5 mph - N/A   Overcast
1:55 AM 38.3 °F 33.9 °F 32.9 °F 81% 30.11 in 10.0 mi North 5.8 mph - N/A Rain Light Rain
2:15 AM 36.1 °F 29.9 °F 31.1 °F 82% 30.10 in 10.0 mi North 8.1 mph - N/A   Overcast
2:35 AM 34.9 °F 28.3 °F 30.4 °F 84% 30.09 in 10.0 mi North 8.1 mph - N/A   Overcast
2:55 AM 33.8 °F - 29.1 °F 83% 30.11 in 10.0 mi Calm Calm - N/A   Scattered Clouds
3:15 AM 33.8 °F - 29.5 °F 84% 30.11 in 10.0 mi Calm Calm - N/A   Clear
3:35 AM 33.8 °F - 29.3 °F 84% 30.11 in 10.0 mi Calm Calm - N/A   Scattered Clouds
3:55 AM 33.8 °F - 29.7 °F 85% 30.12 in 10.0 mi Calm Calm - N/A   Clear
4:15 AM 31.5 °F 26.8 °F 27.7 °F 86% 30.11 in 10.0 mi North 4.6 mph - N/A   Clear
4:35 AM 33.8 °F - 30.2 °F 87% 30.12 in 10.0 mi Calm Calm - N/A   Clear
4:55 AM 31.5 °F 26.8 °F 28.0 °F 87% 30.11 in 10.0 mi North 4.6 mph - N/A   Clear
5:15 AM 31.5 °F - 28.4 °F 88% 30.12 in 10.0 mi Calm Calm - N/A   Clear
5:35 AM 30.2 °F - 27.5 °F 90% 30.13 in 10.0 mi Calm Calm - N/A   Clear
5:55 AM 31.1 °F - 28.4 °F 90% 30.13 in 10.0 mi Calm Calm - N/A   Clear
6:15 AM 28.2 °F - 25.5 °F 90% 30.14 in 10.0 mi Calm Calm - N/A   Clear
7:35 AM 29.1 °F 25.4 °F 27.1 °F 92% 30.17 in 7.0 mi NNE 3.5 mph - N/A   Clear
7:55 AM 33.8 °F 28.6 °F 31.1 °F 90% 30.17 in 10.0 mi NE 5.8 mph - N/A   Clear
8:15 AM 33.8 °F 28.6 °F 30.7 °F 89% 30.18 in 10.0 mi NE 5.8 mph - N/A   Clear
8:35 AM 33.8 °F 26.4 °F 29.5 °F 84% 30.17 in 10.0 mi NE 9.2 mph - N/A   Clear
8:55 AM 36.1 °F 29.9 °F 30.2 °F 79% 30.19 in 10.0 mi ENE 8.1 mph - N/A   Clear
9:15 AM 36.1 °F 29.3 °F 29.3 °F 76% 30.18 in 10.0 mi NE 9.2 mph - N/A   Clear
9:35 AM 38.7 °F 31.4 °F 30.0 °F 71% 30.18 in 10.0 mi ENE 11.5 mph - N/A   Clear
9:55 AM 38.7 °F 31.4 °F 28.8 °F 68% 30.16 in 10.0 mi NE 11.5 mph - N/A   Clear
10:15 AM 39.6 °F 33.5 °F 28.4 °F 64% 30.17 in 10.0 mi ENE 9.2 mph - N/A   Clear
10:35 AM 41.2 °F 35.0 °F 28.6 °F 61% 30.16 in 10.0 mi NE 10.4 mph - N/A   Clear
10:55 AM 41.2 °F 35.0 °F 28.0 °F 60% 30.17 in 10.0 mi ENE 10.4 mph 17.3 mph N/A   Clear
11:35 AM 43.7 °F 39.1 °F 28.2 °F 54% 30.18 in 10.0 mi ENE 8.1 mph - N/A   Clear
11:55 AM 44.4 °F 38.6 °F 27.0 °F 50% 30.16 in 10.0 mi ENE 11.5 mph 16.1 mph N/A   Clear
12:15 PM 45.3 °F 40.1 °F 27.0 °F 49% 30.16 in 10.0 mi NE 10.4 mph - N/A   Clear
12:55 PM 48.2 °F - 27.1 °F 44% 30.15 in 10.0 mi ENE 10.4 mph - N/A   Clear
1:15 PM 50.7 °F - 27.9 °F 41% 30.14 in 10.0 mi ENE 10.4 mph - N/A   Clear
1:35 PM 51.3 °F - 28.2 °F 41% 30.13 in 10.0 mi East 10.4 mph - N/A   Clear
1:55 PM 53.2 °F - 27.5 °F 37% 30.12 in 10.0 mi East 9.2 mph - N/A   Clear
2:15 PM 53.6 °F - 28.4 °F 38% 30.11 in 10.0 mi East 11.5 mph - N/A   Clear
2:35 PM 54.0 °F - 25.7 °F 34% 30.11 in 10.0 mi East 9.2 mph - N/A   Clear
2:55 PM 54.0 °F - 25.9 °F 34% 30.10 in 10.0 mi East 11.5 mph - N/A   Scattered Clouds
3:15 PM 54.0 °F - 24.1 °F 31% 30.09 in 10.0 mi ENE 10.4 mph 17.3 mph N/A   Mostly Cloudy
3:35 PM 54.0 °F - 23.7 °F 31% 30.08 in 10.0 mi East 12.7 mph 18.4 mph N/A   Scattered Clouds
3:55 PM 54.0 °F - 25.0 °F 33% 30.07 in 10.0 mi ENE 11.5 mph - N/A   Scattered Clouds
4:15 PM 54.0 °F - 25.3 °F 33% 30.06 in 10.0 mi East 15.0 mph - N/A   Mostly Cloudy
4:35 PM 54.0 °F - 26.4 °F 35% 30.07 in 10.0 mi East 10.4 mph - N/A   Overcast
4:55 PM 54.0 °F - 27.9 °F 37% 30.07 in 10.0 mi East 10.4 mph - N/A   Overcast
5:15 PM 54.0 °F - 27.1 °F 36% 30.07 in 10.0 mi East 12.7 mph - N/A   Overcast
5:35 PM 54.0 °F - 28.2 °F 37% 30.07 in 10.0 mi East 13.8 mph - N/A   Overcast
5:55 PM 51.8 °F - 32.0 °F 47% 30.06 in 10.0 mi East 16.1 mph 20.7 mph N/A   Overcast
6:15 PM 49.5 °F - 31.3 °F 50% 30.07 in 10.0 mi East 16.1 mph - N/A   Overcast
6:35 PM 47.7 °F - 29.8 °F 50% 30.07 in 10.0 mi East 15.0 mph - N/A   Overcast
6:55 PM 46.4 °F 40.1 °F 30.2 °F 53% 30.08 in 10.0 mi East 15.0 mph - N/A   Overcast
7:15 PM 45.0 °F 38.9 °F 30.9 °F 58% 30.08 in 10.0 mi ENE 12.7 mph 16.1 mph N/A   Overcast
7:35 PM 43.7 °F 36.9 °F 30.7 °F 60% 30.08 in 10.0 mi ENE 13.8 mph 19.6 mph N/A   Overcast
7:55 PM 43.7 °F 36.0 °F 30.4 °F 59% 30.08 in 10.0 mi East 17.3 mph 21.9 mph N/A   Overcast
8:15 PM 42.4 °F 35.3 °F 30.2 °F 62% 30.08 in 10.0 mi East 13.8 mph 17.3 mph N/A   Overcast
8:35 PM 41.4 °F 33.3 °F 29.3 °F 62% 30.08 in 10.0 mi East 16.1 mph 21.9 mph N/A   Overcast
8:55 PM 41.2 °F 33.0 °F 30.6 °F 66% 30.08 in 10.0 mi ENE 16.1 mph - N/A   Overcast
9:15 PM 41.2 °F 33.4 °F 29.1 °F 62% 30.08 in 10.0 mi ENE 15.0 mph 20.7 mph N/A   Overcast
9:35 PM 40.1 °F 31.3 °F 27.7 °F 61% 30.08 in 10.0 mi ENE 17.3 mph 20.7 mph N/A   Overcast
9:55 PM 38.7 °F 30.5 °F 27.9 °F 65% 30.08 in 10.0 mi ENE 13.8 mph 19.6 mph N/A   Overcast
10:15 PM 38.7 °F 29.8 °F 27.7 °F 65% 30.08 in 10.0 mi ENE 16.1 mph - N/A   Overcast
10:35 PM 38.7 °F 30.1 °F 27.7 °F 65% 30.08 in 10.0 mi ENE 15.0 mph - N/A   Overcast
10:55 PM 38.7 °F 30.1 °F 29.1 °F 69% 30.07 in 10.0 mi ENE 15.0 mph 18.4 mph N/A   Overcast
11:15 PM 38.7 °F 30.1 °F 31.1 °F 74% 30.06 in 10.0 mi ENE 15.0 mph - N/A Rain Light Rain
11:35 PM 38.7 °F 30.1 °F 30.9 °F 74% 30.05 in 10.0 mi ENE 15.0 mph 19.6 mph N/A   Overcast
11:55 PM 38.7 °F 30.5 °F 31.1 °F 74% 30.03 in 10.0 mi ENE 13.8 mph - N/A Thunderstorm Overcast